Onweer radar Meer informatie blitzortung!


Regen radar Meer informatie rain snow radar


Bezoek onze andere website:

Template documentation
and downloads

And another site



15 daagse weersverwachting Copenhagen (DK)

  • Overzicht
  • Per uur
  • 15 dagen
  • Extra
  • Vergelijk
  • Kaarten
  • Dagkaart
  • Meer »
  • Info
  • Statistieken
  • Directe link
    Temp 6h Neerslag Wind  
 04:57     21:37    Daglengte: 16:40 Morgen
02:00
17°
 
1
08:00
18°
 
1
14:00
22°
 
4
20:00
22°
 
6
 04:58     21:35    Daglengte: 16:37 Zondag 21 Jul
02:00
18°
5.2 mm
5
08:00
19°
1.4 mm
4
14:00
21°
 
5
20:00
19°
 
5
 05:00     21:34    Daglengte: 16:34 Maandag 22 Jul
02:00
15°
 
4
08:00
15°
 
4
14:00
20°
 
4
20:00
18°
52.6 mm
5
Locatie info
Region: Hovedstaden
Latitude: 55.6759°N
Longitude: 12.5655°E
14 masl
Temp/Neerslag /Baro Onweer/Dauwpunt
    Temp Baro 1h Neerslag Dauwpunt Wind UV Bewolking  
 04:55     21:38    Daglengte: 16:43 Vandaag
23:00
19°
1013.1 hPa
46%
15.1°
2
Windvlaag: 2.8 m/s
36%
 04:57     21:37    Daglengte: 16:40 Morgen
00:00
18°
1013.5 hPa
11%
15.1°
2
Windvlaag: 1.7 m/s
41%
01:00
18°
1013.7 hPa
11%
15.1°
2
Windvlaag: 2.5 m/s
49%
02:00
17°
1013.8 hPa
11%
14.7°
1
Windvlaag: 2.4 m/s
45%
03:00
17°
1013.7 hPa
11%
14.4°
1
Windvlaag: 1.9 m/s
46%
04:00
16°
1013.9 hPa
11%
14.2°
1
Windvlaag: 1.1 m/s
66%
05:00
16°
1013.9 hPa
11%
14.1°
1
Windvlaag: 0.5 m/s
64%
06:00
16°
1013.9 hPa
11%
14.0°
1
Windvlaag: 0.5 m/s
61%
07:00
17°
1013.8 hPa
11%
14.6°
1
Windvlaag: 1.2 m/s
36%
08:00
18°
1014.1 hPa
11%
14.6°
1
Windvlaag: 2.5 m/s
53%
09:00
19°
1014.2 hPa
11%
13.7°
2
Windvlaag: 3.7 m/s
32%
10:00
20°
1014.3 hPa
11%
12.5°
3
Windvlaag: 4.4 m/s
62%
11:00
21°
1014.4 hPa
11%
11.8°
3
Windvlaag: 5.6 m/s
60%
12:00
22°
1014.2 hPa
11%
10.5°
4
Windvlaag: 6.5 m/s
77%
13:00
22°
1014.1 hPa
11%
9.8°
4
Windvlaag: 7.1 m/s
70%
14:00
22°
1014.0 hPa
11%
9.4°
4
Windvlaag: 7.2 m/s
66%
15:00
22°
1013.8 hPa
12%
9.0°
4
Windvlaag: 7.4 m/s
71%
16:00
22°
1013.3 hPa
16%
8.6°
4
Windvlaag: 7.5 m/s
81%
17:00
23°
1012.8 hPa
11%
9.3°
5
Windvlaag: 7.8 m/s
70%
18:00
23°
1012.2 hPa
11%
10.4°
5
Windvlaag: 8.5 m/s
64%
19:00
22°
1011.8 hPa
11%
10.8°
6
Windvlaag: 9.9 m/s
63%
20:00
22°
1011.5 hPa
65%
10.3°
6
Windvlaag: 10.2 m/s
79%
21:00
21°
1011.2 hPa
71%
10.0°
6
Windvlaag: 9.5 m/s
71%
22:00
20°
1011.0 hPa
82%
10.9°
6
Windvlaag: 9.8 m/s
90%
23:00
19°
1011.0 hPa 1.5 mm
82%
12.3°
6
Windvlaag: 10.6 m/s
90% warningclass
 04:58     21:35    Daglengte: 16:37 Zondag 21 Jul
00:00
19°
1010.9 hPa 2.1 mm
82%
15.9°
5
Windvlaag: 9.8 m/s
91% warningclass
01:00
18°
1010.5 hPa 1.5 mm
82%
15.3°
5
Windvlaag: 8.3 m/s
89%
02:00
18°
1010.2 hPa
80%
15.1°
5
Windvlaag: 7.6 m/s
90%
03:00
18°
1010.0 hPa 1.4 mm
80%
15.7°
4
Windvlaag: 7.9 m/s
89%
04:00
18°
1009.8 hPa
23%
15.8°
4
Windvlaag: 6 m/s
77%
05:00
18°
1010.1 hPa
14%
16.0°
3
Windvlaag: 5.1 m/s
52%
06:00
18°
1010.4 hPa
14%
15.2°
3
Windvlaag: 4.4 m/s
38%
07:00
18°
1011.0 hPa
14%
15.2°
4
Windvlaag: 4.8 m/s
26%
08:00
19°
1011.3 hPa
69%
15.4°
4
Windvlaag: 5.4 m/s
13%
09:00
19°
1011.5 hPa
79%
15.5°
4
Windvlaag: 5.9 m/s
12%
10:00
20°
1011.7 hPa
69%
15.6°
4
Windvlaag: 5.8 m/s
28%
11:00
20°
1012.2 hPa
39%
15.8°
5
Windvlaag: 7.3 m/s
57%
12:00
21°
1012.3 hPa
29%
16.3°
5
Windvlaag: 7.8 m/s
38%
13:00
21°
1012.7 hPa
28%
14.8°
5
Windvlaag: 8.3 m/s
50%
14:00
21°
1013.2 hPa
22%
13.6°
5
Windvlaag: 8.6 m/s
35%
15:00
21°
1013.5 hPa
66%
14.5°
5
Windvlaag: 8.7 m/s
52%
16:00
21°
1013.8 hPa
31%
13.7°
6
Windvlaag: 9.6 m/s
43%
17:00
20°
1014.5 hPa
22%
13.5°
6
Windvlaag: 9 m/s
72%
18:00
21°
1014.9 hPa
22%
14.8°
6
Windvlaag: 8.2 m/s
65%
19:00
20°
1015.3 hPa
22%
14.2°
6
Windvlaag: 8 m/s
45%
20:00
19°
1015.8 hPa
21%
14.1°
5
Windvlaag: 8.1 m/s
33%
21:00
18°
1016.4 hPa
21%
13.8°
5
Windvlaag: 7.4 m/s
24%
22:00
17°
1017.1 hPa
21%
13.9°
5
Windvlaag: 7.3 m/s
19%
23:00
17°
1017.8 hPa
21%
13.3°
5
Windvlaag: 8 m/s
13%
 05:00     21:34    Daglengte: 16:34 Maandag 22 Jul
00:00
16°
1018.5 hPa
21%
12.5°
5
Windvlaag: 7.8 m/s
8%
01:00
15°
1018.7 hPa
21%
11.9°
4
Windvlaag: 7.6 m/s
10%
02:00
15°
1018.9 hPa
21%
11.9°
4
Windvlaag: 6.2 m/s
34%
03:00
14°
1019.1 hPa
21%
11.8°
4
Windvlaag: 5.6 m/s
53%
04:00
14°
1019.4 hPa
21%
11.9°
3
Windvlaag: 5.1 m/s
80%
05:00
14°
1019.5 hPa
21%
11.6°
3
Windvlaag: 5 m/s
81%
06:00
14°
1019.6 hPa
21%
11.6°
3
Windvlaag: 5.5 m/s
89%
07:00
14°
1019.8 hPa
21%
11.9°
3
Windvlaag: 5.6 m/s
86%
08:00
15°
1020.1 hPa
21%
12.0°
4
Windvlaag: 5.6 m/s
86%
09:00
16°
1020.4 hPa
21%
11.5°
4
Windvlaag: 5.6 m/s
88%
10:00
17°
1020.5 hPa
21%
10.8°
4
Windvlaag: 5.5 m/s
93%
11:00
17°
1020.8 hPa
21%
10.6°
4
Windvlaag: 6.3 m/s
93%
12:00
18°
1020.9 hPa
21%
11.1°
4
Windvlaag: 6.4 m/s
93%
13:00
20°
1021.0 hPa
21%
11.0°
4
Windvlaag: 6.8 m/s
85%
14:00
20°
1020.8 hPa
22%
11.3°
4
Windvlaag: 6.7 m/s
92%
15:00
20°
1020.3 hPa
100%
14.0°
5
Windvlaag: 1.2 m/s
97%
16:00
19°
1020.1 hPa 9.9 mm
100%
13.5°
5
Windvlaag: 1.4 m/s
98%
17:00
19°
1020.1 hPa 10.0 mm
100%
12.8°
5
Windvlaag: 1.8 m/s
100%
18:00
19°
1019.8 hPa 10.2 mm
100%
12.4°
5
Windvlaag: 1.9 m/s
100%
19:00
18°
1019.6 hPa 11.1 mm
100%
12.7°
5
Windvlaag: 1.8 m/s
100%
20:00
18°
1019.4 hPa 11.4 mm
100%
13.1°
5
Windvlaag: 1.4 m/s
99%
21:00
18°
1019.5 hPa 30.9 mm
100%
14.1°
5
Windvlaag: 9.2 m/s
94%
22:00
18°
1019.6 hPa 30.9 mm
100%
14.2°
4
Windvlaag: 8.9 m/s
88%
Temp/Neerslag /Baro Onweer/Dauwpunt
    Temp Baro Neerslag Dauwpunt Wind Bewolking  
 04:55     21:38    Daglengte: 16:43 Vandaag
23:00
19°
1013.1 hPa   15.1°
2
36%
 04:57     21:37    Daglengte: 16:40 Morgen
02:00
17°
1013.8 hPa   14.7°
1
45%
05:00
16°
1013.9 hPa   14.1°
1
64%
08:00
18°
1014.1 hPa   14.6°
1
53%
11:00
21°
1014.4 hPa   11.8°
3
60%
14:00
22°
1014.0 hPa   9.4°
4
66%
17:00
23°
1012.8 hPa   9.3°
5
70%
20:00
22°
1011.5 hPa   10.3°
6
79%
23:00
19°
1011.0 hPa 1.5 mm 12.3°
6
90% warningclass
 04:58     21:35    Daglengte: 16:37 Zondag 21 Jul
02:00
18°
1010.2 hPa 3.6 mm 15.1°
5
90%
05:00
18°
1010.1 hPa 1.4 mm 16.0°
3
52%
08:00
19°
1011.3 hPa   15.4°
4
13%
11:00
20°
1012.2 hPa   15.8°
5
57%
14:00
21°
1013.2 hPa   13.6°
5
35%
17:00
20°
1014.5 hPa   13.5°
6
72%
20:00
19°
1015.8 hPa   14.1°
5
33%
23:00
17°
1017.8 hPa   13.3°
5
13%
 05:00     21:34    Daglengte: 16:34 Maandag 22 Jul
02:00
15°
1018.9 hPa   11.9°
4
34%
05:00
14°
1019.5 hPa   11.6°
3
81%
08:00
15°
1020.1 hPa   12.0°
4
86%
11:00
17°
1020.8 hPa   10.6°
4
93%
14:00
20°
1020.8 hPa   11.3°
4
92%
17:00
19°
1020.1 hPa 19.9 mm 12.8°
5
100%
20:00
18°
1019.4 hPa 32.7 mm 13.1°
5
99%
23:00
17°
1019.7 hPa 92.6 mm 14.3°
4
83%
 05:02     21:32    Daglengte: 16:30 Dinsdag 23 Jul
02:00
15°
1019.9 hPa 92.6 mm 14.3°
3
54%
05:00
16°
1020.4 hPa 16.1 mm 13.6°
2
26%
08:00
17°
1020.6 hPa 16.1 mm 14.0°
1
9%
11:00
19°
1021.0 hPa 16.1 mm 14.7°
3
41%
14:00
21°
1021.3 hPa 16.1 mm 15.5°
4
73%
17:00
21°
1021.0 hPa 16.1 mm 16.3°
3
55%
20:00
20°
1020.8 hPa 16.1 mm 16.9°
2
36%
23:00
18°
1021.0 hPa 16.1 mm 15.7°
2
18%
 05:03     21:30    Daglengte: 16:27 Woensdag 24 Jul
02:00
16°
1021.3 hPa 16.1 mm 14.6°
2
0%
05:00
17°
1021.4 hPa 16.1 mm 15.0°
2
1%
08:00
19°
1021.5 hPa 16.1 mm 15.6°
1
1%
11:00
21°
1021.8 hPa 16.1 mm 15.6°
2
15%
14:00
23°
1021.9 hPa 16.1 mm 15.4°
3
28%
17:00
22°
1021.3 hPa 16.1 mm 15.7°
3
15%
20:00
22°
1020.7 hPa 16.1 mm 15.8°
2
2%
23:00
20°
1021.3 hPa 16.1 mm 15.2°
2
1%
 05:05     21:29    Daglengte: 16:24 Donderdag 25 Jul
02:00
18°
1021.9 hPa 16.1 mm 14.8°
2
0%
05:00
19°
1022.0 hPa 16.1 mm 15.0°
2
0%
08:00
20°
1022.2 hPa 16.1 mm 15.5°
2
0%
11:00
21°
1022.4 hPa 16.1 mm 15.5°
3
2%
14:00
23°
1022.4 hPa 16.1 mm 14.9°
3
6%
17:00
23°
1021.7 hPa 16.1 mm 14.9°
3
6%
20:00
22°
1021.1 hPa 16.1 mm 14.8°
4
6%
23:00
21°
1021.4 hPa 16.1 mm 15.6°
4
0%
 05:07     21:27    Daglengte: 16:20 Vrijdag 26 Jul
02:00
19°
1021.7 hPa 16.1 mm 15.3°
4
0%
05:00
19°
1021.3 hPa 16.1 mm 14.7°
4
19%
08:00
20°
1020.9 hPa 16.1 mm 14.0°
5
37%
11:00
22°
1020.7 hPa 16.1 mm 14.8°
5
21%
14:00
25°
1020.4 hPa 16.1 mm 15.5°
6
6%
17:00
24°
1019.8 hPa 16.1 mm 14.5°
5
3%
20:00
23°
1019.3 hPa 32.2 mm 13.6°
5
0%
 05:08     21:25    Daglengte: 16:17 Zaterdag 27 Jul
02:00
19°
1019.5 hPa 32.2 mm 12.4°
4
0%
08:00
20°
1018.4 hPa 32.2 mm 14.8°
5
52%
14:00
25°
1018.0 hPa 32.2 mm 14.3°
6
11%
20:00
23°
1017.0 hPa 32.2 mm 14.7°
7
0%
 05:10     21:23    Daglengte: 16:13 Zondag 28 Jul
02:00
20°
1017.4 hPa 32.3 mm 15.9°
6
11%
08:00
21°
1017.7 hPa 34.2 mm 16.6°
6
64%
14:00
26°
1017.8 hPa 34.5 mm 15.5°
6
56%
20:00
24°
1016.8 hPa 34.5 mm 16.6°
5
2%
 05:12     21:22    Daglengte: 16:10 Maandag 29 Jul
02:00
21°
1016.7 hPa 34.5 mm 16.0°
6
9%
08:00
22°
1016.5 hPa 34.5 mm 17.0°
4
32%
14:00
25°
1017.4 hPa 34.5 mm 17.5°
2
87%
20:00
22°
1014.2 hPa 0.2 mm 13.7°
2
17%
 05:14     21:20    Daglengte: 16:06 Dinsdag 30 Jul
02:00
17°
1014.6 hPa 0.2 mm 13.3°
1
15%
08:00
18°
1014.5 hPa 0.4 mm 13.8°
1
27%
14:00
23°
1015.1 hPa 0.4 mm 13.4°
3
23%
20:00
22°
1014.9 hPa 0.4 mm 13.4°
2
15%
 05:16     21:18    Daglengte: 16:02 Woensdag 31 Jul
02:00
17°
1015.6 hPa 0.3 mm 12.9°
2
16%
08:00
18°
1015.3 hPa 0.2 mm 12.9°
2
28%
14:00
22°
1015.1 hPa 0.7 mm 12.7°
3
32%
20:00
21°
1014.1 hPa 1.2 mm 12.9°
2
26%
 05:17     21:16    Daglengte: 15:59 Donderdag 01 Aug
02:00
16°
1014.0 hPa 0.5 mm 12.5°
2
23%
08:00
17°
1013.2 hPa 0.3 mm 12.9°
2
27%
14:00
21°
1012.8 hPa 0.5 mm 12.0°
4
31%
20:00
19°
1012.2 hPa 0.9 mm 12.2°
4
28%
 05:19     21:14    Daglengte: 15:55 Vrijdag 02 Aug
02:00
15°
1012.8 hPa 0.2 mm 11.4°
3
28%
08:00
16°
1012.3 hPa 0.1 mm 11.1°
3
36%
14:00
20°
1012.4 hPa 0.2 mm 10.6°
3
38%
20:00
19°
1011.5 hPa 0.3 mm 11.7°
2
39%
 05:21     21:12    Daglengte: 15:51 Zaterdag 03 Aug
02:00
15°
1011.7 hPa 0.3 mm 11.6°
1
33%
08:00
16°
1010.9 hPa 0.7 mm 11.9°
0
47%
14:00
21°
1010.7 hPa 0.7 mm 11.4°
2
48%
20:00
20°
1009.7 hPa 0.6 mm 12.2°
1
41%
  CAPE Lifted Index Hail Supercell Tornado SRH 3km CL BTM PRES CL TOP PRES Swiss DWD icon SMHI TS
 04:55     21:38    Daglengte: 16:43 Vandaag
23:00 76 J/kg -0.5 K 0 % 0 % 0 % 0 m²/s² 0 0 3.07 2
 04:57     21:37    Daglengte: 16:40 Morgen
00:00 34 J/kg -0.4 K 0 % 0 % 0 % 0 m²/s² 0 0 3.35 2
01:00 23 J/kg 0.3 K 0 % 0 % 0 % 0 m²/s² 0 0 4.35 3
02:00 8 J/kg 0.3 K 0 % 0 % 0 % 0 m²/s² 0 0 4.8 3
03:00 1 J/kg 0.7 K 0 % 0 % 0 % 0 m²/s² 0 0 5.32 3
04:00 13 J/kg 1.0 K 0 % 0 % 0 % 0 m²/s² 0 0 6.67 3
05:00 9 J/kg 1.4 K 0 % 0 % 0 % 0 m²/s² 0 0 7.25 3
06:00 5 J/kg 2.1 K 0 % 0 % 0 % 0 m²/s² 0 0 6.39 1
07:00 0 J/kg 2.4 K 0 % 0 % 0 % 0 m²/s² 0 0 5.46 2
08:00 0 J/kg 2.3 K 0 % 0 % 0 % 0 m²/s² 0 0 4.88 1
09:00 0 J/kg 2.7 K 0 % 0 % 0 % 0 m²/s² 0 0 4.71 2
10:00 0 J/kg 3.6 K 0 % 0 % 0 % 0 m²/s² 0 0 5.31 3
11:00 0 J/kg 3.7 K 0 % 0 % 0 % 0 m²/s² 0 0 5.41 3
12:00 0 J/kg 4.2 K 0 % 0 % 0 % 0 m²/s² 0 0 6.09 3
13:00 0 J/kg 4.9 K 0 % 0 % 0 % 0 m²/s² 0 0 6.79 3
14:00 0 J/kg 5.1 K 0 % 0 % 0 % 0 m²/s² 0 0 6.63 2
15:00 0 J/kg 5.5 K 0 % 0 % 0 % 0 m²/s² 0 0 6.67 2
16:00 0 J/kg 6.0 K 0 % 0 % 0 % 0 m²/s² 0 0 6.75 3
17:00 0 J/kg 3.5 K 0 % 0 % 0 % 0 m²/s² 0 0 4.31 3
18:00 0 J/kg 1.4 K 0 % 0 % 0 % 0 m²/s² 0 0 2.42 3
19:00 0 J/kg 0.1 K 0 % 0 % 0 % 0 m²/s² 0 0 1.36 2
20:00 0 J/kg -1.1 K 0 % 0 % 0 % 0 m²/s² 0 0 -0.05 3
21:00 0 J/kg -1.6 K 0 % 0 % 0 % 0 m²/s² 0 0 -1.03 3
22:00 0 J/kg 0.6 K 0 % 0 % 0 % 0 m²/s² 0 0 0.6 80
23:00 0 J/kg 1.0 K 0 % 0 % 0 % 0 m²/s² 0 0 2.32 95
 04:58     21:35    Daglengte: 16:37 Zondag 21 Jul
00:00 0 J/kg 1.2 K 0 % 0 % 0 % 0 m²/s² 0 0 2.67 95
01:00 0 J/kg 1.3 K 0 % 0 % 0 % 0 m²/s² 0 0 2.56 80
02:00 0 J/kg 0.8 K 0 % 0 % 0 % 0 m²/s² 0 0 2.15 3
03:00 0 J/kg 1.2 K 0 % 0 % 0 % 0 m²/s² 0 0 2.28 3
04:00 5 J/kg 0.9 K 0 % 0 % 0 % 0 m²/s² 0 0 2.55 2
05:00 33 J/kg 0.5 K 0 % 0 % 0 % 0 m²/s² 0 0 2.99 2
06:00 17 J/kg 0.2 K 0 % 0 % 0 % 0 m²/s² 0 0 3.23 2
07:00 46 J/kg 0.1 K 0 % 0 % 0 % 0 m²/s² 0 0 2.74 2
08:00 117 J/kg -0.8 K 0 % 0 % 0 % 0 m²/s² 0 0 1.45 2
09:00 260 J/kg -1.9 K 0 % 0 % 0 % 0 m²/s² 0 0 0.29 80
10:00 447 J/kg -2.7 K 0 % 0 % 0 % 0 m²/s² 0 0 -0.51 2
11:00 656 J/kg -3.4 K 0 % 0 % 0 % 0 m²/s² 0 0 -2.32 2
12:00 599 J/kg -3.3 K 0 % 0 % 0 % 0 m²/s² 0 0 -3.27 2
13:00 751 J/kg -3.1 K 0 % 0 % 0 % 0 m²/s² 0 0 -1.36 3
14:00 996 J/kg -3.6 K 0 % 0 % 0 % 0 m²/s² 0 0 -1.86 3
15:00 906 J/kg -3.5 K 0 % 0 % 0 % 0 m²/s² 0 0 -2.42 3
16:00 1025 J/kg -4.0 K 0 % 0 % 0 % 0 m²/s² 0 0 -3.43 3
17:00 669 J/kg -3.1 K 0 % 0 % 0 % 0 m²/s² 0 0 -0.46 3
18:00 381 J/kg -2.3 K 0 % 0 % 0 % 0 m²/s² 0 0 2.05 3
19:00 53 J/kg -0.8 K 0 % 0 % 0 % 0 m²/s² 0 0 4.42 2
20:00 0 J/kg 1.2 K 0 % 0 % 0 % 0 m²/s² 0 0 6.27 0
21:00 0 J/kg 1.5 K 0 % 0 % 0 % 0 m²/s² 0 0 6.21 1
22:00 0 J/kg 2.6 K 0 % 0 % 0 % 0 m²/s² 0 0 7.07 0
23:00 0 J/kg 4.3 K 0 % 0 % 0 % 0 m²/s² 0 0 8.53 0
 05:00     21:34    Daglengte: 16:34 Maandag 22 Jul
00:00 0 J/kg 4.2 K 0 % 0 % 0 % 0 m²/s² 0 0 8.55 0
01:00 0 J/kg 4.8 K 0 % 0 % 0 % 0 m²/s² 0 0 8.91 0
02:00 0 J/kg 5.0 K 0 % 0 % 0 % 0 m²/s² 0 0 9.02 0
03:00 0 J/kg 5.5 K 0 % 0 % 0 % 0 m²/s² 0 0 9.52 0
04:00 0 J/kg 5.6 K 0 % 0 % 0 % 0 m²/s² 0 0 9.62 0
05:00 0 J/kg 6.5 K 0 % 0 % 0 % 0 m²/s² 0 0 10.16 0
06:00 1 J/kg 6.9 K 0 % 0 % 0 % 0 m²/s² 0 0 10.29 3
07:00 1 J/kg 6.9 K 0 % 0 % 0 % 0 m²/s² 0 0 9.93 0
08:00 0 J/kg 7.5 K 0 % 0 % 0 % 0 m²/s² 0 0 9.72 2
09:00 0 J/kg 6.9 K 0 % 0 % 0 % 0 m²/s² 0 0 8.31 2
10:00 0 J/kg 6.2 K 0 % 0 % 0 % 0 m²/s² 0 0 7.55 3
11:00 0 J/kg 5.5 K 0 % 0 % 0 % 0 m²/s² 0 0 6.7 3
12:00 17 J/kg 5.3 K 0 % 0 % 0 % 0 m²/s² 0 0 6.35 3
13:00 23 J/kg 5.3 K 0 % 0 % 0 % 0 m²/s² 0 0 5.81 3
14:00 27 J/kg 5.2 K 0 % 0 % 0 % 0 m²/s² 0 0 5.38 3
15:00 60 J/kg 5.1 K 0 % 0 % 0 % 0 m²/s² 0 0 5.19 61
16:00 16 J/kg 6.1 K 0 % 0 % 0 % 0 m²/s² 0 0 6.22 61
17:00 0 J/kg 6.4 K 0 % 0 % 0 % 0 m²/s² 0 0 6.43 61
18:00 2 J/kg 6.9 K 0 % 0 % 0 % 0 m²/s² 0 0 6.93 61
19:00 1 J/kg 6.1 K 0 % 0 % 0 % 0 m²/s² 0 0 6.1 61
20:00 0 J/kg 6.0 K 0 % 0 % 0 % 0 m²/s² 0 0 6 61
21:00 0 J/kg 5.8 K 0 % 0 % 0 % 0 m²/s² 0 0 5.8
22:00 0 J/kg 6.4 K 0 % 0 % 0 % 0 m²/s² 0 0 6.4
Temp Baro Wind Neerslag
  EWN Forecast EWN WRFDA DWD ICON FMI HIRLAM MET Norway GFSWXSIM
 04:55     21:38    Daglengte: 16:43 Vandaag
23:00 18.7° 1013.1 hPa 1.9 m/s 0.0 mm 18.5° 1012.6 hPa 2.0 m/s 0.0 mm 17.9° 1013.4 hPa 1.2 m/s -2.0 mm 17.5° 1012.7 hPa 1.6 m/s 0.0 mm 19.9° 1013.2 hPa 1.9 m/s 0.0 mm 17.6° 1013.6 hPa 2.4 m/s 18.4° 1014.0 hPa 1.0 m/s 0.0 mm
 04:57     21:37    Daglengte: 16:40 Morgen
02:00 17.2° 1013.8 hPa 1.5 m/s 0.0 mm 16.7° 1013.2 hPa 1.8 m/s 0.1 mm 16.2° 1014.0 hPa 0.8 m/s 0.0 mm 16.3° 1013.4 hPa 1.9 m/s 0.0 mm 18.3° 1014.0 hPa 1.3 m/s 0.0 mm 16.6° 1014.2 hPa 2.1 m/s 16.8° 1014.0 hPa 2.0 m/s 0.0 mm
05:00 15.7° 1013.9 hPa 0.8 m/s 0.0 mm 14.9° 1013.5 hPa 1.1 m/s 0.1 mm 15.4° 1013.9 hPa 0.3 m/s 0.0 mm 15.1° 1013.7 hPa 2.1 m/s 0.0 mm 16.8° 1014.0 hPa 0.1 m/s 0.0 mm 16.1° 1014.2 hPa 1.5 m/s 16.0° 1014.0 hPa 1.0 m/s 0.0 mm
08:00 17.7° 1014.1 hPa 1.3 m/s 0.0 mm 17.4° 1013.5 hPa 0.9 m/s 0.1 mm 17.7° 1013.7 hPa 1.5 m/s 0.0 mm 17.1° 1014.0 hPa 1.5 m/s 0.0 mm 19.6° 1014.4 hPa 1.3 m/s 0.0 mm 17.8° 1014.0 hPa 0.5 m/s 17.7° 1014.0 hPa 1.0 m/s 0.0 mm
11:00 20.6° 1014.4 hPa 3.1 m/s 0.0 mm 20.5° 1014.0 hPa 3.7 m/s 0.1 mm 19.8° 1014.3 hPa 3.1 m/s 0.0 mm 20.3° 1014.0 hPa 3.9 m/s 0.0 mm 23.1° 1014.5 hPa 2.9 m/s 0.0 mm 19.9° 1014.4 hPa 2.5 m/s 21.6° 1014.0 hPa 2.0 m/s 0.0 mm
14:00 21.9° 1014.0 hPa 4.0 m/s 0.0 mm 21.9° 1013.5 hPa 5.1 m/s 0.1 mm 20.8° 1013.5 hPa 3.6 m/s 0.0 mm 20.7° 1014.2 hPa 5.3 m/s 0.0 mm 23.3° 1014.1 hPa 3.1 m/s 0.0 mm 20.7° 1013.9 hPa 4.5 m/s 24.1° 1013.0 hPa 4.0 m/s 0.0 mm
17:00 22.8° 1012.8 hPa 4.5 m/s 0.0 mm 22.2° 1012.3 hPa 5.5 m/s 0.1 mm 22.2° 1012.5 hPa 4.3 m/s 0.0 mm 21.7° 1012.6 hPa 5.3 m/s 0.0 mm 24.3° 1013.0 hPa 3.9 m/s 0.0 mm 20.4° 1012.6 hPa 5.2 m/s 24.7° 1013.0 hPa 5.0 m/s 0.0 mm
20:00 21.7° 1011.5 hPa 5.6 m/s 0.0 mm 21.5° 1011.4 hPa 6.2 m/s 0.1 mm 20.7° 1010.9 hPa 4.6 m/s 0.0 mm 21.0° 1011.2 hPa 6.6 m/s 0.0 mm 22.5° 1011.7 hPa 5.1 m/s 0.0 mm 19.9° 1011.6 hPa 6.4 m/s 22.8° 1012.0 hPa 6.0 m/s 0.0 mm
23:00 19.4° 1011.0 hPa 6.4 m/s 1.5 mm 17.9° 1011.7 hPa 7.1 m/s 2.4 mm 17.9° 1010.9 hPa 4.4 m/s 3.8 mm 19.7° 1010.1 hPa 8.4 m/s 0.0 mm 20.5° 1011.0 hPa 5.7 m/s 0.0 mm 18.1° 1011.5 hPa 4.8 m/s 17.2° 1011.0 hPa 5.0 m/s 3.3 mm
 04:58     21:35    Daglengte: 16:37 Zondag 21 Jul
02:00 18.2° 1010.2 hPa 4.8 m/s 3.6 mm 17.6° 1011.3 hPa 4.5 m/s 4.9 mm 17.9° 1010.5 hPa 2.7 m/s 3.8 mm 18.7° 1008.6 hPa 9.5 m/s 0.0 mm 18.7° 1010.3 hPa 4.0 m/s 3.4 mm 17.9° 1010.8 hPa 5.9 m/s 16.9° 1011.0 hPa 5.0 m/s 4.1 mm
05:00 18.0° 1010.1 hPa 3.3 m/s 1.4 mm 17.2° 1010.8 hPa 2.6 m/s 4.9 mm 17.2° 1011.0 hPa 3.4 m/s 0.1 mm 18.2° 1008.1 hPa 5.2 m/s 0.0 mm 18.4° 1010.3 hPa 1.9 m/s 0.0 mm 17.3° 1010.2 hPa 2.4 m/s 17.1° 1010.0 hPa 3.0 m/s 2.3 mm
08:00 18.6° 1011.3 hPa 3.8 m/s 0.0 mm 17.3° 1011.5 hPa 2.3 m/s 5.0 mm 18.4° 1011.9 hPa 3.8 m/s 0.0 mm 18.1° 1009.7 hPa 6.4 m/s 0.0 mm 20.3° 1011.5 hPa 2.8 m/s 0.0 mm 18.2° 1010.5 hPa 3.1 m/s 17.2° 1010.0 hPa 3.0 m/s 0.7 mm
11:00 20.2° 1012.2 hPa 5.1 m/s 0.0 mm 19.3° 1012.3 hPa 1.6 m/s 5.6 mm 20.4° 1012.3 hPa 5.6 m/s 0.4 mm 19.1° 1011.1 hPa 6.4 m/s 0.0 mm 22.5° 1012.5 hPa 4.5 m/s 0.0 mm 20.3° 1012.0 hPa 5.5 m/s 17.3° 1012.0 hPa 4.0 m/s 2.3 mm
14:00 21.4° 1013.2 hPa 5.3 m/s 0.0 mm 21.7° 1013.0 hPa 2.7 m/s 52.8 mm 21.7° 1013.5 hPa 6.3 m/s 0.0 mm 20.6° 1012.4 hPa 7.0 m/s 0.0 mm 21.9° 1013.7 hPa 4.7 m/s 0.0 mm 21.4° 1013.0 hPa 5.6 m/s 20.9° 1012.0 hPa 5.0 m/s 1.0 mm
17:00 19.5° 1014.5 hPa 5.5 m/s 0.0 mm 21.8° 1014.0 hPa 7.0 m/s 83.2 mm 19.5° 1015.2 hPa 5.7 m/s 0.0 mm 19.4° 1014.7 hPa 5.4 m/s 0.0 mm 20.9° 1014.4 hPa 7.5 m/s 22.8° 1013.0 hPa 6.0 m/s 0.0 mm
20:00 18.9° 1015.8 hPa 5.4 m/s 0.0 mm 18.8° 1015.7 hPa 7.7 m/s 87.9 mm 18.4° 1016.1 hPa 4.6 m/s 0.0 mm 20.4° 1015.9 hPa 5.0 m/s 0.0 mm 19.3° 1015.7 hPa 7.1 m/s 21.5° 1015.0 hPa 6.0 m/s 0.0 mm
23:00 16.7° 1017.8 hPa 5.1 m/s 0.0 mm 16.7° 1017.8 hPa 5.7 m/s 87.9 mm 16.0° 1018.2 hPa 3.5 m/s 0.0 mm 18.0° 1017.8 hPa 5.1 m/s 0.0 mm 16.8° 1018.1 hPa 7.8 m/s 16.9° 1017.0 hPa 7.0 m/s 0.0 mm
 05:00     21:34    Daglengte: 16:34 Maandag 22 Jul
02:00 15.1° 1018.9 hPa 3.8 m/s 0.0 mm 15.1° 1018.4 hPa 4.9 m/s 87.9 mm 14.6° 1018.8 hPa 3.3 m/s 0.0 mm 15.8° 1019.3 hPa 3.5 m/s 0.0 mm 15.4° 1019.1 hPa 7.0 m/s 14.5° 1019.0 hPa 7.0 m/s 0.0 mm
05:00 13.9° 1019.5 hPa 3.3 m/s 0.0 mm 13.3° 1019.2 hPa 5.3 m/s 87.9 mm 13.7° 1019.7 hPa 2.8 m/s 0.0 mm 15.0° 1019.5 hPa 2.9 m/s 0.0 mm 14.7° 1019.9 hPa 6.5 m/s 13.1° 1019.0 hPa 6.0 m/s 0.0 mm
08:00 15.2° 1020.1 hPa 3.8 m/s 0.0 mm 14.4° 1019.7 hPa 3.8 m/s 87.9 mm 15.7° 1020.1 hPa 3.8 m/s 0.0 mm 15.4° 1020.2 hPa 3.2 m/s 0.0 mm 16.1° 1020.0 hPa 6.3 m/s 13.5° 1020.0 hPa 6.0 m/s 0.0 mm
11:00 17.3° 1020.8 hPa 3.8 m/s 0.0 mm 18.4° 1020.7 hPa 4.5 m/s 87.9 mm 19.3° 1020.7 hPa 3.6 m/s 0.0 mm 16.9° 1020.8 hPa 3.5 m/s 0.0 mm 18.7° 1021.0 hPa 6.5 m/s 16.3° 1021.0 hPa 7.0 m/s 0.0 mm
14:00 19.9° 1020.8 hPa 4.0 m/s 0.0 mm 19.9° 1021.0 hPa 6.2 m/s 87.9 mm 21.5° 1020.3 hPa 4.8 m/s 0.0 mm 19.8° 1020.8 hPa 3.2 m/s 0.0 mm 20.4° 1021.2 hPa 6.2 m/s 17.6° 1021.0 hPa 6.0 m/s 0.0 mm
17:00 19.3° 1020.1 hPa 5.1 m/s 19.9 mm 17.7° 1021.2 hPa 5.4 m/s 88.3 mm 19.0° 1020.4 hPa 4.5 m/s 0.4 mm 19.8° 1019.6 hPa 5.2 m/s 0.0 mm 19.6° 1021.2 hPa 6.6 m/s 16.7° 1021.0 hPa 6.0 m/s 0.3 mm
20:00 17.7° 1019.4 hPa 4.9 m/s 32.7 mm 16.8° 1020.2 hPa 4.7 m/s 90.7 mm 15.7° 1019.3 hPa 4.7 m/s 3.7 mm 19.0° 1019.3 hPa 5.0 m/s 0.0 mm 17.4° 1020.8 hPa 5.5 m/s 16.0° 1021.0 hPa 6.0 m/s 0.2 mm
23:00 17.1° 1019.7 hPa 3.9 m/s 92.6 mm 17.6° 1020.0 hPa 4.0 m/s 92.6 mm 17.1° 1019.6 hPa 3.9 m/s 16.9° 1021.1 hPa 5.2 m/s 15.5° 1021.0 hPa 5.0 m/s 0.0 mm
 05:02     21:32    Daglengte: 16:30 Dinsdag 23 Jul
02:00 15.3° 1019.9 hPa 3.1 m/s 92.6 mm 16.7° 1019.5 hPa 5.0 m/s 92.6 mm 15.1° 1020.0 hPa 2.8 m/s 17.0° 1020.5 hPa 4.4 m/s 15.4° 1021.0 hPa 5.0 m/s 0.0 mm
05:00 16.2° 1020.4 hPa 1.9 m/s 16.1 mm 16.3° 1020.5 hPa 1.5 m/s 16.6° 1019.7 hPa 4.4 m/s 16.1 mm 15.2° 1020.0 hPa 5.0 m/s 0.0 mm
08:00 16.9° 1020.6 hPa 1.4 m/s 16.1 mm 16.9° 1020.7 hPa 0.8 m/s 17.5° 1019.5 hPa 5.1 m/s 16.1 mm 16.9° 1020.0 hPa 5.0 m/s 0.0 mm
11:00 18.9° 1021.0 hPa 2.7 m/s 16.1 mm 18.6° 1021.2 hPa 2.3 m/s 21.1° 1019.8 hPa 5.0 m/s 16.1 mm 20.1° 1020.0 hPa 5.0 m/s 0.0 mm
14:00 20.8° 1021.3 hPa 4.1 m/s 16.1 mm 20.3° 1021.6 hPa 3.9 m/s 22.9° 1019.5 hPa 5.6 m/s 16.1 mm 24.8° 1019.0 hPa 5.0 m/s 0.0 mm
17:00 20.6° 1021.0 hPa 2.9 m/s 16.1 mm 19.9° 1021.4 hPa 2.5 m/s 23.8° 1018.9 hPa 5.4 m/s 16.1 mm 25.9° 1019.0 hPa 5.0 m/s 0.0 mm
20:00 19.9° 1020.8 hPa 1.7 m/s 16.1 mm 19.4° 1021.1 hPa 1.2 m/s 22.6° 1018.6 hPa 5.0 m/s 16.1 mm 23.8° 1019.0 hPa 4.0 m/s 0.0 mm
23:00 18.0° 1021.0 hPa 1.7 m/s 16.1 mm 17.8° 1021.4 hPa 1.4 m/s 19.6° 1019.2 hPa 4.0 m/s 16.1 mm 18.6° 1019.0 hPa 3.0 m/s 0.0 mm
 05:03     21:30    Daglengte: 16:27 Woensdag 24 Jul
02:00 16.3° 1021.3 hPa 1.9 m/s 16.1 mm 16.2° 1021.6 hPa 1.7 m/s 18.0° 1019.3 hPa 3.6 m/s 16.1 mm 16.2° 1019.0 hPa 3.0 m/s 0.0 mm
05:00 17.3° 1021.4 hPa 1.7 m/s 16.1 mm 17.5° 1021.8 hPa 1.4 m/s 16.9° 1019.0 hPa 3.3 m/s 16.1 mm 14.8° 1019.0 hPa 3.0 m/s 0.0 mm
08:00 18.7° 1021.5 hPa 1.4 m/s 16.1 mm 18.8° 1021.9 hPa 1.2 m/s 18.3° 1019.3 hPa 2.8 m/s 16.1 mm 17.6° 1019.0 hPa 3.0 m/s 0.0 mm
11:00 20.7° 1021.8 hPa 2.1 m/s 16.1 mm 20.5° 1022.1 hPa 2.0 m/s 21.8° 1019.2 hPa 2.1 m/s 16.1 mm 22.7° 1020.0 hPa 3.0 m/s 0.0 mm
14:00 22.5° 1021.9 hPa 2.7 m/s 16.1 mm 22.1° 1022.4 hPa 2.9 m/s 24.4° 1019.3 hPa 1.4 m/s 16.1 mm 26.1° 1019.0 hPa 2.0 m/s 0.0 mm
17:00 22.3° 1021.3 hPa 2.6 m/s 16.1 mm 21.8° 1021.7 hPa 2.8 m/s 25.0° 1018.8 hPa 1.0 m/s 16.1 mm 26.6° 1019.0 hPa 2.0 m/s 0.0 mm
20:00 21.7° 1020.7 hPa 2.5 m/s 16.1 mm 21.4° 1021.0 hPa 2.7 m/s 23.4° 1018.4 hPa 1.2 m/s 16.1 mm 23.3° 1019.0 hPa 1.0 m/s 0.0 mm
23:00 19.7° 1021.3 hPa 1.9 m/s 16.1 mm 19.7° 1021.6 hPa 2.2 m/s 20.7° 1019.3 hPa 0.2 m/s 16.1 mm 18.5° 1019.0 hPa 0.0 m/s 0.0 mm
 05:05     21:29    Daglengte: 16:24 Donderdag 25 Jul
02:00 18.0° 1021.9 hPa 1.6 m/s 16.1 mm 18.0° 1022.2 hPa 1.8 m/s 19.8° 1020.1 hPa 0.3 m/s 16.1 mm 16.5° 1020.0 hPa 0.0 m/s 0.0 mm
05:00 18.6° 1022.0 hPa 1.6 m/s 16.1 mm 18.8° 1022.4 hPa 1.8 m/s 19.4° 1019.8 hPa 1.4 m/s 16.1 mm 15.4° 1020.0 hPa 0.0 m/s 0.0 mm
08:00 19.6° 1022.2 hPa 1.9 m/s 16.1 mm 19.5° 1022.5 hPa 1.8 m/s 21.2° 1020.1 hPa 2.3 m/s 16.1 mm 18.8° 1020.0 hPa 2.0 m/s 0.0 mm
11:00 21.5° 1022.4 hPa 2.6 m/s 16.1 mm 21.1° 1022.6 hPa 2.5 m/s 23.5° 1020.8 hPa 3.2 m/s 16.1 mm 24.0° 1021.0 hPa 3.0 m/s 0.0 mm
14:00 23.1° 1022.4 hPa 3.4 m/s 16.1 mm 22.7° 1022.7 hPa 3.3 m/s 24.1° 1021.0 hPa 4.1 m/s 16.1 mm 27.2° 1020.0 hPa 4.0 m/s 0.0 mm
17:00 22.9° 1021.7 hPa 3.5 m/s 16.1 mm 22.4° 1021.9 hPa 3.4 m/s 24.2° 1020.6 hPa 4.1 m/s 16.1 mm 27.0° 1020.0 hPa 4.0 m/s 0.0 mm
20:00 22.3° 1021.1 hPa 3.6 m/s 16.1 mm 22.1° 1021.1 hPa 3.5 m/s 22.6° 1020.5 hPa 4.2 m/s 16.1 mm 24.5° 1021.0 hPa 4.0 m/s 0.0 mm
23:00 20.6° 1021.4 hPa 3.7 m/s 16.1 mm 20.6° 1021.4 hPa 3.6 m/s 20.9° 1021.2 hPa 4.4 m/s 16.1 mm
 05:07     21:27    Daglengte: 16:20 Vrijdag 26 Jul
02:00 19.1° 1021.7 hPa 3.7 m/s 16.1 mm 19.0° 1021.7 hPa 3.7 m/s 20.1° 1021.5 hPa 3.9 m/s 16.1 mm
05:00 19.5° 1021.3 hPa 4.1 m/s 16.1 mm 19.5° 1021.3 hPa 4.2 m/s 19.5° 1020.9 hPa 3.5 m/s 16.1 mm
08:00 20.1° 1020.9 hPa 4.6 m/s 16.1 mm 20.0° 1020.9 hPa 4.6 m/s 20.9° 1021.0 hPa 4.1 m/s 16.1 mm
11:00 22.3° 1020.7 hPa 5.1 m/s 16.1 mm 22.3° 1020.6 hPa 5.2 m/s 22.8° 1021.1 hPa 4.2 m/s 16.1 mm
14:00 24.6° 1020.4 hPa 5.6 m/s 16.1 mm 24.6° 1020.4 hPa 5.7 m/s 24.3° 1020.4 hPa 4.7 m/s 16.1 mm
17:00 23.8° 1019.8 hPa 5.2 m/s 16.1 mm 23.8° 1019.8 hPa 5.2 m/s 24.6° 1019.4 hPa 4.8 m/s 16.1 mm
20:00 22.9° 1019.3 hPa 4.7 m/s 16.1 mm 22.9° 1019.3 hPa 4.7 m/s 23.3° 1018.8 hPa 4.6 m/s 16.1 mm
 05:08     21:25    Daglengte: 16:17 Zaterdag 27 Jul
02:00 19.3° 1019.5 hPa 3.9 m/s 16.1 mm 19.1° 1019.6 hPa 3.8 m/s 21.0° 1018.6 hPa 4.6 m/s 16.1 mm
08:00 19.8° 1018.4 hPa 5.4 m/s 16.1 mm 19.6° 1018.4 hPa 5.5 m/s 22.2° 1017.8 hPa 3.7 m/s 16.1 mm
14:00 24.9° 1018.0 hPa 6.1 m/s 16.1 mm 24.8° 1018.0 hPa 6.2 m/s 25.4° 1017.8 hPa 4.8 m/s 16.1 mm
20:00 22.9° 1017.0 hPa 6.6 m/s 16.1 mm 22.8° 1017.0 hPa 6.9 m/s 23.9° 1017.4 hPa 3.3 m/s 16.1 mm
 05:10     21:23    Daglengte: 16:13 Zondag 28 Jul
02:00 19.7° 1017.4 hPa 6.4 m/s 16.1 mm 19.7° 1017.2 hPa 6.6 m/s 19.3° 1019.2 hPa 4.6 m/s 16.1 mm
08:00 21.2° 1017.7 hPa 5.7 m/s 17.3 mm 21.5° 1017.4 hPa 5.8 m/s 18.5° 1020.4 hPa 5.2 m/s 17.3 mm
14:00 25.7° 1017.8 hPa 6.3 m/s 17.3 mm 26.0° 1017.5 hPa 6.4 m/s 22.3° 1021.6 hPa 5.1 m/s 17.3 mm
20:00 24.2° 1016.8 hPa 5.1 m/s 17.3 mm 24.5° 1016.4 hPa 5.1 m/s 20.5° 1021.4 hPa 4.8 m/s 17.3 mm
 05:12     21:22    Daglengte: 16:10 Maandag 29 Jul
02:00 21.1° 1016.7 hPa 6.1 m/s 17.3 mm 21.4° 1016.2 hPa 6.3 m/s 17.3° 1022.2 hPa 3.3 m/s 17.3 mm
08:00 22.0° 1016.5 hPa 4.4 m/s 17.3 mm 22.3° 1016.0 hPa 4.5 m/s 18.3° 1022.2 hPa 3.3 m/s 17.3 mm
14:00 24.7° 1017.4 hPa 2.5 m/s 17.3 mm 24.8° 1017.1 hPa 2.5 m/s 23.3° 1021.2 hPa 2.5 m/s 17.3 mm
20:00 21.7° 1014.2 hPa 1.6 m/s 0.2 mm
 05:14     21:20    Daglengte: 16:06 Dinsdag 30 Jul
02:00 17.4° 1014.6 hPa 0.8 m/s 0.2 mm
08:00 18.2° 1014.5 hPa 1.2 m/s 0.4 mm
14:00 23.1° 1015.1 hPa 3.0 m/s 0.4 mm
20:00 21.7° 1014.9 hPa 2.1 m/s 0.4 mm
 05:16     21:18    Daglengte: 16:02 Woensdag 31 Jul
02:00 16.9° 1015.6 hPa 1.6 m/s 0.3 mm
08:00 17.6° 1015.3 hPa 2.1 m/s 0.2 mm
14:00 22.1° 1015.1 hPa 3.0 m/s 0.7 mm
20:00 20.6° 1014.1 hPa 2.2 m/s 1.2 mm
 05:17     21:16    Daglengte: 15:59 Donderdag 01 Aug
02:00 16.1° 1014.0 hPa 1.7 m/s 0.5 mm
08:00 16.9° 1013.2 hPa 2.4 m/s 0.3 mm
14:00 21.4° 1012.8 hPa 4.0 m/s 0.5 mm
20:00 19.3° 1012.2 hPa 3.9 m/s 0.9 mm
 05:19     21:14    Daglengte: 15:55 Vrijdag 02 Aug
02:00 15.2° 1012.8 hPa 3.3 m/s 0.2 mm
08:00 15.7° 1012.3 hPa 2.8 m/s 0.1 mm
14:00 19.8° 1012.4 hPa 3.4 m/s 0.2 mm
20:00 19.0° 1011.5 hPa 2.3 m/s 0.3 mm
 05:21     21:12    Daglengte: 15:51 Zaterdag 03 Aug
02:00 15.0° 1011.7 hPa 0.9 m/s 0.3 mm
08:00 16.3° 1010.9 hPa 0.5 m/s 0.7 mm
14:00 21.0° 1010.7 hPa 1.6 m/s 0.7 mm
20:00 19.6° 1009.7 hPa 1.1 m/s 0.6 mm
FMI Hirlam - 7.5 km EWN WRFDA - 12 km DWD ICON - 7 km GFS - 25 km Basiskaart






























































Updatetijd (Europe/Amsterdam) Resolutie Lengte Stap
FMI Hirlam 19:00, 01:00, 07:00, 13:00 7.5 km 49h 1h
EWN WRFDA 22:00, 04:00, 10:00, 16:00 12 km 73h 1h
DWD ICON 17:45, 23:45, 05:45, 11:45 7 km 75h 1h
GFS 20:30, 02:30, 08:30, 14:30 25 km 237h 3h
30+ mm
25-30 mm
20-25 mm
15-20 mm
10-15 mm
6-10 mm
4-6 mm
2-4 mm
1-2 mm
0.5-1 mm
0.2-0.5 mm
0.1-0.2 mm
30+ mm
25-30 mm
20-25 mm
15-20 mm
10-15 mm
6-10 mm
4-6 mm
2-4 mm
1-2 mm
0.5-1 mm
0.2-0.5 mm
0.1-0.2 mm
Sneeuwval
Natte sneeuw
Hagel
Vorst
30+ mm
25-30 mm
20-25 mm
15-20 mm
10-15 mm
6-10 mm
4-6 mm
2-4 mm
1-2 mm
0.5-1 mm
0.2-0.5 mm
0.1-0.2 mm
Sneeuwval
Natte sneeuw
Hagel
Vorst
Onweer
50 mm
40 mm
30 mm
26 mm
22 mm
18 mm
14 mm
10 mm
9 mm
8 mm
7 mm
6 mm
5 mm
4.5 mm
4 mm
3.5 mm
3 mm
2.5 mm
2 mm
1.5 mm
1 mm
0.8 mm
0.6 mm
0.4 mm
0.2 mm
0.05 mm
35°